RH
66 64 72 75 75 75 78 86 90 91 90 84 79 75 72 66 59 52 52 52 46 43 41 44 44 46 45 45 51 55 51 43 39 38 37 34 32 30 31 33 31 30 32 30 30
61 51 61 72 82 88 90 86 82 79 76 74 73 71 64 54 51 48 46 43 42 39 36 34 38 40 40 39 40 42 47 47 43 38 37 35 32 30 27 26 25 24 22 21 20
73 78 76 72 75 78 76 72 67 64 62 62 59 54 50 44 38 32 29 26 24 24 27 31 31 31 29 31 32 32 36 40 41 41 38 34 32 31 30 29 28 27 26 25 22
100 78 70 70 70 69 70 70 70 67 60 47 35 29 26 23 21 20 19 18 18 18 18 19 18 18 20 24 25 26 28 30 30 34 35 34 33 31 31 33 29 26 24 23 24
66 78 93 97 98 91 83 74 55 42 36 30 28 25 24 22 21 18 16 16 16 16 14 13 13 14 15 15 17 22 24 25 26 27 27 27 27 28 29 29 28 25 26 24 22
57 53 53 50 50 49 46 43 42 40 33 29 26 27 31 27 24 18 17 18 20 17 14 16 15 14 14 12 13 14 17 20 21 24 25 25 25 25 26 26 26 22 21 21 18
67 61 52 49 46 44 44 45 44 41 35 30 27 26 32 28 30 24 22 25 24 23 21 26 30 28 20 15 12 10 12 13 18 19 21 23 24 25 25 24 24 23 20 18 19
56 59 58 54 56 53 53 52 50 49 46 35 30 26 32 37 40 41 34 36 35 29 35 31 16 12 11 13 15 12 11 10 11 14 18 18 18 20 21 21 23 22 22 21 21
100 59 61 58 58 61 59 56 53 51 48 41 34 30 33 34 36 42 41 39 39 36 40 23 13 11 10 9 9 12 13 12 10 11 13 15 15 17 18 19 20 20 21 22 21
100 100 69 62 62 60 65 62 56 51 46 36 31 27 29 30 36 44 43 43 45 43 43 18 15 11 10 9 9 9 12 12 12 11 11 11 12 13 14 16 16 17 17 18 18
100 100 100 97 63 62 58 62 64 55 44 40 36 32 28 30 36 46 49 50 50 50 43 19 17 13 10 10 9 9 10 14 16 14 13 13 12 13 14 15 14 14 15 16 16
100 100 100 100 100 78 62 58 53 58 54 43 36 36 32 33 39 49 53 56 50 52 46 29 20 17 13 12 11 10 10 10 17 21 17 16 16 16 17 18 17 18 18 17 16
100 100 100 100 100 100 96 71 56 46 49 48 40 38 38 37 40 52 56 56 52 53 50 45 23 21 16 14 13 11 10 11 12 19 24 22 21 20 20 22 23 23 23 22 23
100 100 100 100 100 100 100 100 75 54 46 47 43 44 42 46 50 56 57 54 56 53 54 49 42 23 22 17 16 14 12 12 12 14 22 28 32 31 31 31 36 37 30 29 29
100 100 100 100 100 100 100 100 100 88 56 60 45 52 48 55 78 57 56 57 53 54 56 54 51 42 25 24 20 21 21 16 14 14 15 20 34 30 31 34 26 22 22 21 21
100 100 100 100 100 100 100 100 100 96 96 94 68 51 58 79 95 58 57 58 52 52 55 56 57 53 50 31 26 24 25 27 28 28 26 27 31 31 29 25 23 23 25 28 32
100 100 100 100 100 98 100 100 100 100 100 100 92 62 55 90 98 71 58 63 63 51 59 55 54 60 57 57 50 37 29 29 30 32 33 32 30 27 23 24 28 32 34 35 39
93 100 100 100 100 100 98 100 98 100 100 100 100 86 62 83 100 91 65 66 64 54 51 63 63 52 57 56 58 61 52 47 50 44 38 36 39 38 36 41 42 42 39 38 38
86 100 94 100 100 100 100 100 100 100 100 100 100 99 91 81 96 94 76 63 62 62 51 47 56 67 67 67 56 45 43 50 53 55 55 55 48 45 43 41 42 46 48 48 50
55 95 83 100 100 100 97 100 100 100 100 100 100 100 92 86 80 100 77 75 66 64 56 46 47 43 43 43 53 65 66 59 50 58 57 76 67 53 48 49 61 64 61 57 52
40 64 68 86 94 100 77 81 100 100 100 100 86 100 100 91 84 99 90 82 69 69 64 59 59 56 47 42 37 34 38 49 52 56 61 71 71 63 54 53 50 45 40 35 31
20 33 64 76 89 82 98 86 100 100 100 100 92 79 92 91 87 84 100 75 71 63 65 58 64 62 50 45 38 37 32 31 32 39 45 44 51 44 40 38 38 33 32 30 30
14 25 49 67 83 86 99 100 100 100 100 100 100 89 76 61 82 87 100 85 71 69 78 71 69 70 55 46 43 41 39 40 36 34 40 38 38 36 34 36 34 33 30 28 28
12 14 28 46 63 73 92 100 100 100 100 100 100 100 95 72 65 73 98 99 78 73 75 79 73 68 60 53 50 42 37 41 43 44 40 47 44 38 38 37 34 32 30 28 29
11 12 15 26 56 86 93 100 100 100 100 100 100 100 100 91 73 56 82 100 84 77 67 73 92 79 69 70 59 49 47 43 48 53 54 58 61 54 51 46 45 42 35 32 29
9 11 14 22 37 67 84 94 100 100 100 100 100 100 100 91 86 67 63 100 100 97 67 62 89 86 74 74 67 59 55 49 58 66 65 70 76 60 56 48 44 41 34 31 32
9 14 12 18 31 36 79 100 100 100 100 100 99 98 96 93 82 76 80 84 99 93 92 70 59 66 77 61 53 62 52 53 63 76 80 77 69 65 56 53 51 43 38 37 38
Wind_Speed
14 14 19 19 19 18 17 17 18 19 21 23 24 26 27 29 31 32 33 33 33 33 35 37 38 40 39 38 39 39 37 36 34 34 34 32 31 31 31 31 31 32 33 35 35
21 20 22 22 21 20 20 21 22 23 25 26 28 29 31 34 36 38 38 38 39 40 41 41 43 44 45 45 44 43 44 44 42 39 39 39 37 36 35 35 36 36 36 37 37
25 24 24 25 26 25 25 25 26 27 29 31 33 35 37 39 41 42 44 44 45 46 48 50 50 50 50 50 51 49 48 48 49 47 46 44 43 41 40 41 41 41 41 41 42
32 32 32 31 31 31 31 30 31 32 33 33 35 36 39 41 43 44 45 47 49 50 51 54 56 56 56 56 55 54 54 54 52 52 51 50 49 47 46 47 46 45 46 45 47
38 37 37 36 36 36 36 35 34 34 33 33 34 37 38 40 41 43 44 45 45 48 52 55 58 60 61 62 62 62 60 58 58 57 55 54 53 52 51 51 51 50 51 51 52
46 43 41 40 40 39 38 37 37 36 35 35 36 36 36 39 39 40 40 41 45 50 50 52 55 59 63 66 67 67 66 65 63 61 61 60 58 56 56 56 55 55 55 55 55
54 50 48 45 44 44 43 41 41 39 39 38 37 38 37 37 36 36 37 41 46 48 45 42 44 49 55 61 69 69 71 69 69 66 64 63 62 61 60 59 59 60 59 59 58
62 58 56 52 50 48 46 46 45 44 41 41 40 40 39 37 35 37 37 40 43 41 39 41 40 42 48 52 57 64 71 71 72 70 69 67 65 64 63 63 64 64 64 63 62
68 66 63 59 56 52 48 48 47 46 44 44 43 42 38 37 38 38 38 40 40 38 38 38 36 38 39 44 48 53 58 67 69 70 71 71 68 67 66 67 69 68 67 67 66
71 71 69 66 63 59 54 51 50 48 46 45 42 42 40 40 38 37 38 39 37 35 37 34 34 34 33 35 40 46 51 57 65 68 70 70 68 66 67 71 71 68 68 69 71
77 76 74 71 68 66 61 56 53 51 49 46 43 42 40 38 36 36 37 35 34 32 33 31 31 30 29 28 34 39 46 50 54 64 66 65 64 63 68 70 69 68 70 71 72
82 78 81 76 73 69 66 63 59 55 52 50 46 43 39 38 36 35 34 33 32 29 30 29 28 26 24 22 25 31 37 44 50 51 57 63 63 66 68 69 68 67 69 71 73
85 83 77 83 78 74 71 67 63 60 55 51 49 46 41 40 38 35 32 31 30 27 28 27 26 25 20 16 17 22 28 35 42 49 48 48 48 50 50 52 56 60 63 65 67
90 86 82 78 82 79 76 73 67 63 58 56 51 48 45 41 39 35 34 32 30 27 27 25 24 23 21 15 11 12 17 25 32 39 47 45 42 41 41 42 44 46 48 50 53
89 90 88 80 77 84 79 77 73 66 60 57 55 50 47 43 42 39 36 33 31 29 26 25 21 21 19 17 12 10 9 11 18 25 33 39 42 43 41 41 41 43 45 48 51
95 94 94 88 84 78 83 80 75 72 63 60 58 55 49 44 44 41 37 33 31 30 27 26 23 20 19 17 15 13 13 15 16 19 23 29 34 38 38 39 42 45 48 50 53
104 100 98 94 88 85 77 78 78 68 69 65 63 58 53 46 43 42 39 36 34 30 28 27 27 25 21 19 17 17 16 18 20 23 27 30 33 37 39 42 44 47 50 52 56
109 103 104 101 94 88 84 79 76 69 71 69 68 62 57 50 45 44 42 39 35 32 28 26 27 27 27 26 26 23 22 21 24 27 30 32 35 37 39 42 44 48 52 56 60
117 111 108 106 100 95 90 81 68 73 71 74 71 67 61 56 47 46 44 43 40 37 33 29 27 27 27 28 29 30 28 28 30 33 36 38 39 43 44 46 48 53 57 60 65
117 116 114 110 105 101 95 78 73 72 74 73 72 69 65 60 52 47 48 48 44 42 37 34 32 30 30 32 33 33 32 33 34 36 38 42 46 47 49 49 54 58 63 66 71
109 121 121 116 112 106 95 83 72 75 77 77 70 70 69 62 56 51 51 49 47 46 43 40 39 41 39 40 40 41 41 40 41 42 43 47 54 56 54 57 62 67 69 73 78
102 107 117 121 116 107 96 87 80 77 78 78 77 72 68 67 63 55 56 56 53 47 47 46 45 46 45 45 45 46 46 46 48 50 52 53 58 62 61 63 69 72 74 76 80
89 100 110 123 122 110 99 92 87 81 82 83 78 77 77 74 68 66 60 61 59 55 52 51 48 48 47 46 48 48 49 49 50 52 54 54 60 62 63 64 68 72 75 78 83
87 90 105 113 118 114 107 96 90 88 86 84 82 76 76 77 74 69 64 62 63 62 58 54 53 52 49 49 50 49 50 47 44 50 48 58 58 66 62 67 70 73 75 78 82
81 80 92 100 110 113 111 103 96 87 89 87 83 80 81 79 78 72 68 66 67 67 64 57 57 56 53 53 54 56 57 54 55 57 55 62 64 69 71 73 75 77 79 82 85
77 75 79 90 107 115 114 110 101 94 91 90 84 87 88 86 82 75 73 69 65 68 69 63 60 61 59 58 59 60 65 60 60 62 61 67 72 74 77 77 80 82 83 85 88
76 78 78 86 96 106 113 109 108 102 98 97 94 91 90 88 85 79 77 75 71 69 69 67 67 66 64 64 63 64 69 68 67 67 69 73 76 77 80 83 87 86 87 90 92
Wind_Direction
219 214 201 203 207 213 219 227 231 235 242 247 250 252 253 256 257 260 261 262 260 258 256 255 254 252 250 250 247 247 250 248 244 244 246 247 246 245 245 245 245 244 246 246 247
238 233 223 218 219 224 229 234 240 246 251 254 256 258 261 264 264 265 267 267 265 263 262 256 252 253 253 251 249 246 244 247 249 246 247 248 247 247 248 248 248 248 250 252 253
243 243 238 232 231 233 238 243 248 253 257 259 263 267 270 270 271 271 270 269 269 267 265 262 260 258 253 253 251 248 246 245 246 247 248 248 249 250 251 250 251 253 254 256 256
245 244 243 242 242 243 245 249 253 257 262 265 268 270 271 272 272 272 273 272 270 268 265 263 262 260 258 254 251 250 248 247 246 246 247 247 250 253 254 254 254 255 257 258 258
245 247 249 248 248 249 250 252 256 260 262 263 267 270 273 275 277 275 275 274 271 268 266 266 263 260 259 255 253 251 249 248 247 246 246 248 250 251 254 256 258 259 260 261 261
247 244 244 245 247 247 249 254 257 260 259 263 267 271 279 280 279 278 276 275 272 274 276 272 264 259 257 254 251 250 248 248 249 248 247 247 248 250 253 257 259 260 260 261 263
250 246 244 244 246 249 251 253 255 258 259 263 267 270 275 284 282 284 281 281 280 282 281 277 272 267 261 256 251 249 247 247 246 247 248 249 250 251 253 257 259 260 261 262 263
248 248 246 245 246 247 251 254 255 257 259 263 268 272 275 285 283 290 287 288 286 289 286 286 281 273 264 259 254 249 247 244 245 246 247 249 250 252 254 257 258 260 261 263 264
248 246 247 247 246 248 248 251 254 257 259 262 265 269 273 282 286 292 292 296 293 291 292 293 289 283 271 259 254 251 248 245 243 244 245 247 249 251 254 256 257 259 262 264 266
249 246 246 246 248 247 250 250 252 254 257 259 264 267 271 282 285 292 290 297 297 292 298 297 299 295 281 263 253 249 248 245 243 243 245 246 248 251 253 255 257 260 262 265 265
247 247 244 246 246 248 247 249 250 252 254 258 261 267 272 280 283 291 291 295 299 292 302 302 304 305 293 275 260 250 246 245 245 244 245 247 249 251 253 256 259 261 262 264 267
241 245 244 242 246 248 248 249 247 249 252 256 260 264 269 277 282 289 290 294 299 290 302 307 309 315 304 287 268 253 248 246 243 245 245 247 251 253 255 258 260 260 262 265 267
235 240 242 242 242 245 248 249 250 248 250 251 256 263 268 276 279 283 285 293 298 289 295 310 309 316 317 306 285 263 251 247 244 244 245 246 249 252 255 257 259 262 264 268 270
234 235 239 241 242 242 245 248 249 250 249 252 252 258 266 272 276 277 275 290 295 291 287 302 313 312 320 319 315 288 264 253 247 244 245 247 250 253 258 262 264 266 267 268 270
226 233 233 235 239 240 243 246 248 248 249 251 252 255 261 268 273 272 269 279 288 294 285 289 303 310 310 319 313 301 286 268 258 250 245 247 252 258 261 265 264 266 267 268 269
224 230 232 232 233 237 239 241 245 247 249 250 252 254 260 266 267 269 265 272 281 288 291 281 286 297 308 306 305 299 288 278 268 260 253 250 250 255 258 262 265 267 270 271 273
223 225 230 228 230 232 234 237 240 244 246 248 251 253 256 261 262 265 263 265 271 281 286 287 278 281 286 293 298 294 284 276 270 264 261 259 259 261 264 266 269 271 273 274 275
221 222 226 227 227 229 232 232 237 241 244 246 249 252 254 256 259 262 260 260 266 272 280 283 287 282 279 279 281 280 277 277 277 274 269 267 267 267 268 269 272 275 277 276 278
220 222 225 226 225 226 228 232 231 236 241 245 247 251 255 252 253 259 256 257 260 264 269 274 278 281 285 286 283 279 275 270 269 272 276 276 274 274 274 275 277 277 277 278 280
223 223 223 225 225 226 227 228 231 233 237 241 245 247 251 252 249 251 254 254 256 259 263 269 272 276 280 283 283 281 280 277 274 274 274 277 276 276 275 278 278 279 279 281 282
225 225 224 223 224 224 227 225 227 233 235 237 239 244 246 249 247 246 252 250 253 255 262 264 270 277 277 282 283 281 279 276 276 275 274 276 280 279 281 282 283 283 284 285 286
227 226 225 224 226 225 223 225 225 230 233 235 236 239 243 246 247 245 247 247 250 252 258 263 268 273 278 282 282 280 279 278 277 277 277 277 282 281 283 284 284 285 286 288 287
228 226 225 225 225 226 223 224 224 228 233 234 235 238 242 244 243 247 248 247 248 251 254 260 266 271 275 280 283 283 281 282 281 281 283 285 283 283 284 285 285 286 287 288 289
229 225 224 225 226 225 225 223 223 228 232 234 233 235 240 243 244 245 245 245 249 250 252 258 265 269 272 278 283 283 289 289 289 288 290 289 291 286 290 290 290 291 292 294 295
232 226 225 225 224 226 224 224 224 224 230 232 234 236 238 241 243 243 244 246 248 251 253 256 261 265 271 276 279 285 287 290 292 296 294 292 296 296 297 297 299 300 301 302 303
232 229 224 221 222 224 225 223 222 223 226 232 233 235 237 238 241 244 244 243 248 250 254 255 257 263 268 271 276 281 284 290 294 295 296 298 298 298 299 300 300 300 303 304 306
231 229 223 220 221 222 223 225 224 226 227 231 233 235 236 237 240 241 245 244 247 250 254 256 257 261 266 271 274 278 286 290 293 293 294 295 296 299 301 302 302 304 306 307 309